Track RUBIN 9.1/RUBIN 9.2/PSLV now! 10-day predictions RUBIN 9.1/RUBIN 9.2/PSLV is classified as:
1 35936U 09051F 22137.87520409 .00000242 00000-0 85438-4 0 9991 2 35936 98.1970 85.7354 0053531 255.5332 103.9915 14.41989813665537